Weather History for Clarinda, IA

Change the Weather History Date:

Wednesday, January 9, 2013

  Actual Average Record
Temperature  
Mean Temperature 36 °F -  
Max Temperature 50 °F 32 °F 57 °F (2002)
Min Temperature 21 °F 14 °F -16 °F (1999)
Degree Days  
Heating Degree Days 30    
Moisture  
Dew Point 25 °F    
Average Humidity 77    
Maximum Humidity 93    
Minimum Humidity 43    
Precipitation  
Precipitation 0.00 in - - ()
Sea Level Pressure  
Sea Level Pressure 30.33 in    
Wind  
Wind Speed 1 mph (South)    
Max Wind Speed 6 mph    
Max Gust Speed -    
Visibility 10 miles    
Events      
Averages and records for this station are not official NWS values.
T = Trace of Precipitation, MM = Missing Value Source: NWS Daily Summary

Daily Weather History Graph

Daily Weather History Graph

Search for Another Location

Airport:

Trip Planner

Search our weather history database for the weather conditions in past years. The results will help you decide how hot, cold, wet, or windy it might be!

Date:

Astronomy

Jan. 09, 2013 Rise Set
Actual Time 7:43 AM CST 5:11 PM CST
Civil Twilight 7:13 AM CST 5:41 PM CST
Nautical Twilight 6:39 AM CST 6:15 PM CST
Astronomical Twilight 6:06 AM CST 6:48 PM CST
Moon 5:24 AM CST (1/9) 3:13 PM CST (1/9)
Length of Visible Light 10h 28m
Length of Day
9h 27m
Waning Crescent, 6% of the Moon is Illuminated
Jan 9
Waning Crescent
Jan 11
New
Jan 18
First Quarter
Jan 26
Full
Feb 3
Last Quarter

Hourly Weather History & Observations

Time (CST) Temp. Windchill Dew Point Humidity Pressure Visibility Wind Dir Wind Speed Gust Speed Precip Events Conditions
12:15 AM 28.4 °F - 24.8 °F 86% 30.14 in 10.0 mi Calm Calm - N/A   Clear
12:35 AM 28.4 °F - 24.8 °F 86% 30.15 in 10.0 mi Calm Calm - N/A   Clear
12:55 AM 28.4 °F 22.2 °F 24.8 °F 86% 30.16 in 10.0 mi South 5.8 mph - N/A   Clear
1:15 AM 26.6 °F - 21.2 °F 80% 30.17 in 10.0 mi Calm Calm - N/A   Clear
1:35 AM 26.6 °F - 23.0 °F 86% 30.19 in 10.0 mi Calm Calm - N/A   Clear
1:55 AM 26.6 °F - 24.8 °F 93% 30.19 in 10.0 mi Calm Calm - N/A   Clear
2:15 AM 28.4 °F - 24.8 °F 86% 30.21 in 10.0 mi Calm Calm - N/A   Clear
2:35 AM 28.4 °F - 23.0 °F 80% 30.21 in 10.0 mi Calm Calm - N/A   Clear
2:55 AM 28.4 °F - 24.8 °F 86% 30.23 in 10.0 mi Calm Calm - N/A   Clear
3:15 AM 30.2 °F - 24.8 °F 80% 30.23 in 10.0 mi Calm Calm - N/A   Clear
3:35 AM 28.4 °F - 23.0 °F 80% 30.24 in 10.0 mi Calm Calm - N/A   Clear
3:55 AM 28.4 °F 23.3 °F 24.8 °F 86% 30.26 in 10.0 mi South 4.6 mph - N/A   Clear
4:15 AM 26.6 °F 20.0 °F 21.2 °F 80% 30.27 in 10.0 mi South 5.8 mph - N/A   Clear
4:35 AM 24.8 °F - 21.2 °F 86% 30.27 in 10.0 mi Calm Calm - N/A   Clear
4:55 AM 24.8 °F 20.5 °F 21.2 °F 86% 30.27 in 10.0 mi South 3.5 mph - N/A   Clear
5:15 AM 24.8 °F - 21.2 °F 86% 30.27 in 10.0 mi Calm Calm - N/A   Clear
5:35 AM 21.2 °F - 19.4 °F 93% 30.27 in 7.0 mi Calm Calm - N/A   Clear
5:55 AM 21.2 °F - 19.4 °F 93% 30.27 in 7.0 mi Calm Calm - N/A   Clear
6:15 AM 21.2 °F 14.9 °F 19.4 °F 93% 30.28 in 7.0 mi SSW 4.6 mph - N/A   Clear
6:35 AM 23.0 °F 15.8 °F 19.4 °F 86% 30.29 in 10.0 mi South 5.8 mph - N/A   Clear
6:55 AM 23.0 °F 17.0 °F 19.4 °F 86% 30.30 in 10.0 mi South 4.6 mph - N/A   Clear
7:15 AM 21.2 °F 14.9 °F 19.4 °F 93% 30.31 in 10.0 mi NNW 4.6 mph - N/A   Clear
7:35 AM 23.0 °F - 19.4 °F 86% 30.31 in 10.0 mi Calm Calm - N/A   Clear
7:55 AM 21.2 °F 13.6 °F 19.4 °F 93% 30.34 in 7.0 mi South 5.8 mph - N/A   Clear
8:35 AM 24.8 °F - 21.2 °F 86% 30.39 in 10.0 mi Calm Calm - N/A   Clear
8:55 AM 26.6 °F - 23.0 °F 86% 30.40 in 10.0 mi Calm Calm - N/A   Clear
9:15 AM 30.2 °F 26.7 °F 24.8 °F 80% 30.42 in 10.0 mi South 3.5 mph - N/A   Clear
9:35 AM 32.0 °F - 26.6 °F 80% 30.43 in 10.0 mi Calm Calm - N/A   Clear
9:55 AM 33.8 °F - 26.6 °F 75% 30.43 in 10.0 mi Calm Calm - N/A   Clear
10:15 AM 35.6 °F - 28.4 °F 75% 30.43 in 10.0 mi Calm Calm - N/A   Clear
10:35 AM 35.6 °F - 28.4 °F 75% 30.43 in 10.0 mi Calm Calm - N/A   Clear
10:55 AM 37.4 °F - 30.2 °F 75% 30.43 in 10.0 mi Calm Calm - N/A   Clear
11:15 AM 37.4 °F - 30.2 °F 75% 30.43 in 10.0 mi Calm Calm - N/A   Clear
11:55 AM 42.8 °F - 32.0 °F 66% 30.42 in 10.0 mi Calm Calm - N/A   Clear
12:15 PM 44.6 °F - 30.2 °F 57% 30.41 in 10.0 mi Calm Calm - N/A   Clear
12:35 PM 46.4 °F - 30.2 °F 53% 30.40 in 10.0 mi Calm Calm - N/A   Clear
12:55 PM 46.4 °F - 30.2 °F 53% 30.38 in 10.0 mi Calm Calm - N/A   Clear
1:15 PM 48.2 °F - 30.2 °F 50% 30.37 in 10.0 mi Calm Calm - N/A   Clear
1:35 PM 48.2 °F - 30.2 °F 50% 30.36 in 10.0 mi Calm Calm - N/A   Clear
1:55 PM 48.2 °F - 30.2 °F 50% 30.36 in 10.0 mi Calm Calm - N/A   Clear
2:15 PM 48.2 °F - 30.2 °F 50% 30.36 in 10.0 mi Calm Calm - N/A   Clear
2:35 PM 50.0 °F - 30.2 °F 47% 30.36 in 10.0 mi Calm Calm - N/A   Clear
2:55 PM 50.0 °F - 30.2 °F 47% 30.36 in 10.0 mi Calm Calm - N/A   Clear
3:15 PM 50.0 °F - 28.4 °F 43% 30.36 in 10.0 mi Calm Calm - N/A   Clear
3:35 PM 50.0 °F - 28.4 °F 43% 30.37 in 10.0 mi Calm Calm - N/A   Clear
3:55 PM 50.0 °F - 28.4 °F 43% 30.36 in 10.0 mi Calm Calm - N/A   Clear
4:15 PM 48.2 °F - 28.4 °F 46% 30.36 in 10.0 mi Calm Calm - N/A   Clear
4:35 PM 44.6 °F - 30.2 °F 57% 30.36 in 10.0 mi Calm Calm - N/A   Clear
4:55 PM 42.8 °F - 30.2 °F 61% 30.36 in 10.0 mi Calm Calm - N/A   Clear
5:15 PM 39.2 °F - 28.4 °F 65% 30.37 in 10.0 mi Calm Calm - N/A   Clear
5:35 PM 37.4 °F - 28.4 °F 70% 30.37 in 10.0 mi Calm Calm - N/A   Clear
5:55 PM 33.8 °F - 26.6 °F 75% 30.37 in 10.0 mi Calm Calm - N/A   Clear
6:15 PM 30.2 °F - 26.6 °F 86% 30.37 in 10.0 mi Calm Calm - N/A   Clear
6:35 PM 33.8 °F - 26.6 °F 75% 30.37 in 10.0 mi Calm Calm - N/A   Clear
6:55 PM 28.4 °F - 24.8 °F 86% 30.38 in 10.0 mi Calm Calm - N/A   Clear
7:15 PM 30.2 °F - 26.6 °F 86% 30.38 in 7.0 mi Calm Calm - N/A   Clear
7:35 PM 28.4 °F - 24.8 °F 86% 30.38 in 10.0 mi Calm Calm - N/A   Clear
7:55 PM 28.4 °F - 24.8 °F 86% 30.38 in 10.0 mi Calm Calm - N/A   Clear
8:15 PM 26.6 °F - 24.8 °F 93% 30.38 in 10.0 mi Calm Calm - N/A   Clear
8:35 PM 26.6 °F - 24.8 °F 93% 30.38 in 10.0 mi Calm Calm - N/A   Clear
8:55 PM 28.4 °F - 24.8 °F 86% 30.37 in 10.0 mi Calm Calm - N/A   Clear
9:15 PM 26.6 °F - 23.0 °F 86% 30.37 in 10.0 mi Calm Calm - N/A   Clear
9:35 PM 26.6 °F - 23.0 °F 86% 30.37 in 10.0 mi Calm Calm - N/A   Clear
9:55 PM 26.6 °F - 24.8 °F 93% 30.37 in 10.0 mi Calm Calm - N/A   Clear
10:15 PM 26.6 °F - 23.0 °F 86% 30.37 in 10.0 mi Calm Calm - N/A   Clear
10:35 PM 26.6 °F - 21.2 °F 80% 30.38 in 10.0 mi Calm Calm - N/A   Clear
10:55 PM 26.6 °F - 23.0 °F 86% 30.38 in 10.0 mi Calm Calm - N/A   Clear
11:15 PM 24.8 °F - 21.2 °F 86% 30.38 in 10.0 mi Calm Calm - N/A   Clear
11:35 PM 26.6 °F - 23.0 °F 86% 30.38 in 10.0 mi Calm Calm - N/A   Clear
11:55 PM 24.8 °F - 21.2 °F 86% 30.36 in 10.0 mi Calm Calm - N/A   Clear